Regional Weather Roundup
Issued by NWS

Home | Current Version | Previous Version | Graphics & Text | Print | Product List | Glossary On
Versions: 1 2 3 4 5 6 7 8 9 10 11 12 13 14 15 16 17 18 19 20 21 22 23 24 25 26 27 28 29 30 31 32 33 34 35 36 37 38 39 40 41 42 43 44 45 46 47 48 49 50
000
ASUS44 KMEG 260710
RWRTN
TENNESSEE HOURLY STATE WEATHER ROUNDUP
NATIONAL WEATHER SERVICE MEMPHIS TN
100 AM CST FRI DEC 26 2014

TNZ002-004-019-021-049-052-054-088>092-260800-
WEST TENNESSEE

CITY           SKY/WX    TMP DP  RH WIND       PRES   REMARKS
MEMPHIS INTL   MOCLDY    43  35  73 S9        30.15S
NWS MEMPHIS      N/A     40 N/A N/A MISG        N/A
JACKSON        PTCLDY    42  34  73 S7        30.18S
DYERSBURG      CLEAR     41  27  56 S6        30.17R
UNION CITY     CLEAR     37  34  87 S8        30.14S WCI  31
PARIS          CLEAR     34  32  93 S8        30.17S WCI  27
HUNTINGDON     PTCLDY    34  31  89 S5        30.18S WCI  30
LEXINGTON      CLEAR     37  34  87 S3        30.18R
SAVANNAH       CLEAR     39  36  87 S7        30.20R WCI  34
$$

TNZ008-025-027-028-033-062-065-066-260800-
NORTH MIDDLE TENNESSEE

CITY           SKY/WX    TMP DP  RH WIND       PRES   REMARKS
NASHVILLE      CLEAR     35  32  88 E3        30.22S
CLARKSVILLE    CLEAR     34  31  88 SE5       30.19S WCI  30
SMYRNA         CLEAR     29  27  92 CALM      30.24S
COOKEVILLE     CLEAR     28  27  93 CALM      30.21S
CROSSVILLE     CLEAR     35  29  78 CALM      30.21F
$$

TNZ061-075-076-078-094-096-097-260800-
SOUTH MIDDLE TENNESSEE

CITY           SKY/WX    TMP DP  RH WIND       PRES   REMARKS
FAYETTEVILLE   CLEAR     36  30  80 MISG      30.21S
TULLAHOMA      CLEAR     34  30  86 CALM      30.22R
WINCHESTER     CLEAR     36  32  87 E6        30.23R WCI  31
MCMINNVILLE    CLEAR     28  28 100 CALM      30.22R
COLUMBIA       CLEAR     37  37 100 S3        30.19S
SHELBYVILLE    CLEAR     30  30 100 E3        30.23S
$$

TNZ017-018-042-046-047-260800-
NORTHEAST TENNESSEE

CITY           SKY/WX    TMP DP  RH WIND       PRES   REMARKS
TRI CITIES     CLEAR     27  26  96 CALM      30.26R
ELIZABETHTON   SUNNY     27  27 100 CALM      30.25S
$$

TNZ012-013-036-069-073-074-260800-
CENTRAL EAST TENNESSEE

CITY           SKY/WX    TMP DP  RH WIND       PRES   REMARKS
KNOXVILLE      PTCLDY    30  29  96 NE5       30.25S WCI  25
OAK RIDGE      FOG       30  29  96 CALM      30.26F VSB 3/4
GATLINBURG     SUNNY     27  27 100 CALM      30.26R
MORRISTOWN     SUNNY     30  30 100 CALM      30.26R
$$

TNZ083-085-099-260800-
SOUTHEAST TENNESSEE

CITY           SKY/WX    TMP DP  RH WIND       PRES   REMARKS
CHATTANOOGA    CLEAR     33  31  92 CALM      30.26R
$$

SKY/WX REPORTED AS FAIR MEANS FEW OR NO CLOUDS BELOW
12 THOUSAND FEET.



USA.gov is the U.S. government's official web portal to all federal, state and local government web resources and services.